Dodge City, KS

6:59 PM CDT on April 29, 2017 (GMT -0500)
Dodge City Regional

Weather History for KDDC - June, 2014

Change the Weather History Date:

Tuesday, June 10, 2014

  Actual Average Record
Temperature  
Mean Temperature 66 °F -  
Max Temperature 79 °F 83 °F 104 °F (1917)
Min Temperature 54 °F 59 °F 45 °F (1955)
Cooling Degree Days 2    
Growing Degree Days 16 (Base 50)    
Moisture  
Dew Point 53 °F    
Average Humidity 75    
Maximum Humidity 96    
Minimum Humidity 27    
Precipitation  
Precipitation 0.00 in - - ()
Sea Level Pressure  
Sea Level Pressure 29.92 in    
Wind  
Wind Speed 13 mph (NNW)    
Max Wind Speed 20 mph    
Max Gust Speed 32 mph    
Visibility 8 miles    
Events      
Averages and records for this station are not official NWS values.
T = Trace of Precipitation, MM = Missing Value Source: NWS Daily Summary

Daily Weather History Graph

Daily Weather History Graph

Search for Another Location

Airport or City:

Trip Planner

Search our weather history database for the weather conditions in past years. The results will help you decide how hot, cold, wet, or windy it might be!

Date:

Astronomy

Jun. 10, 2014 Rise Set
Actual Time 6:17 AM CDT 9:01 PM CDT
Civil Twilight 5:46 AM CDT 9:32 PM CDT
Nautical Twilight 5:07 AM CDT 10:11 PM CDT
Astronomical Twilight 4:23 AM CDT 10:55 PM CDT
Moon 6:30 PM CDT (6/10) 4:21 AM CDT (6/10)
Length of Visible Light 15h 46m
Length of Day
14h 43m
Waxing Gibbous, 92% of the Moon is Illuminated
Jun 10
Waxing Gibbous
Jun 12
Full
Jun 19
Last Quarter
Jun 27
New
Jul 5
First Quarter

Hourly Weather History & Observations

Time (CDT) Temp. Dew Point Humidity Pressure Visibility Wind Dir Wind Speed Gust Speed Precip Events Conditions
12:35 AM 55.9 °F 52.0 °F 87% 29.94 in 10.0 mi North 19.6 mph 27.6 mph 0.00 in   Overcast
12:43 AM 55.9 °F 52.0 °F 87% 29.94 in 10.0 mi North 18.4 mph 32.2 mph 0.00 in   Mostly Cloudy
12:52 AM 55.9 °F 52.0 °F 87% 29.90 in 10.0 mi North 18.4 mph 27.6 mph 0.00 in   Mostly Cloudy
1:52 AM 55.0 °F 52.0 °F 89% 29.90 in 10.0 mi North 13.8 mph - 0.00 in   Clear
2:30 AM 55.0 °F 52.0 °F 89% 29.94 in 9.0 mi NNW 11.5 mph - N/A   Mostly Cloudy
2:52 AM 55.0 °F 52.0 °F 89% 29.90 in 9.0 mi NNW 18.4 mph 24.2 mph N/A   Overcast
3:24 AM 54.0 °F 51.1 °F 90% 29.94 in 9.0 mi NNW 15.0 mph - N/A   Scattered Clouds
3:45 AM 54.0 °F 52.0 °F 93% 29.95 in 8.0 mi NNW 11.5 mph - N/A   Mostly Cloudy
3:52 AM 54.0 °F 52.0 °F 93% 29.91 in 8.0 mi NNW 12.7 mph - N/A   Mostly Cloudy
4:13 AM 54.0 °F 52.0 °F 93% 29.95 in 8.0 mi NNW 12.7 mph - N/A   Overcast
4:52 AM 55.0 °F 52.0 °F 89% 29.92 in 7.0 mi North 12.7 mph - N/A   Overcast
5:41 AM 55.9 °F 53.1 °F 90% 29.96 in 5.0 mi NNW 10.4 mph - N/A   Overcast
5:52 AM 55.9 °F 53.1 °F 90% 29.93 in 5.0 mi North 10.4 mph - N/A   Overcast
6:26 AM 55.9 °F 53.1 °F 90% 29.96 in 5.0 mi North 10.4 mph - N/A   Overcast
6:52 AM 55.4 °F 53.6 °F 94% 29.97 in 3.0 mi NNW 10.4 mph - N/A   Overcast
7:24 AM 55.9 °F 53.1 °F 90% 29.98 in 2.5 mi NNW 10.4 mph - N/A   Overcast
7:40 AM 55.9 °F 54.0 °F 93% 29.98 in 1.5 mi NNW 8.1 mph - N/A   Overcast
7:48 AM 55.4 °F 53.6 °F 94% 29.99 in 1.2 mi NNW 11.5 mph - N/A   Overcast
7:52 AM 55.0 °F 53.1 °F 93% 29.96 in 1.0 mi NNW 11.5 mph - N/A   Overcast
8:18 AM 55.0 °F 54.0 °F 96% 29.99 in 1.5 mi NNW 10.4 mph - N/A   Overcast
8:52 AM 55.4 °F 53.6 °F 94% 30.00 in 3.0 mi NNW 9.2 mph - N/A   Overcast
9:42 AM 57.0 °F 53.1 °F 87% 30.00 in 6.0 mi North 10.4 mph - N/A   Overcast
9:52 AM 57.2 °F 53.6 °F 88% 30.00 in 5.0 mi North 10.4 mph - N/A   Overcast
10:52 AM 64.0 °F 55.9 °F 75% 29.95 in 7.0 mi Variable 6.9 mph - N/A   Mostly Cloudy
11:07 AM 64.9 °F 55.9 °F 73% 29.99 in 8.0 mi NNW 6.9 mph - N/A   Scattered Clouds
11:52 AM 68.0 °F 55.9 °F 65% 29.94 in 9.0 mi Variable 4.6 mph - N/A   Partly Cloudy
12:52 PM 72.0 °F 54.0 °F 53% 29.91 in 10.0 mi Variable 3.5 mph - N/A   Clear
1:52 PM 73.9 °F 53.1 °F 48% 29.89 in 10.0 mi Calm Calm - N/A   Clear
3:52 PM 77.0 °F 51.8 °F 41% 29.92 in 10.0 mi SSW 6.9 mph - N/A   Clear
4:52 PM 78.1 °F 51.1 °F 39% 29.84 in 10.0 mi SSW 5.8 mph - N/A   Partly Cloudy
5:52 PM 78.8 °F 51.8 °F 39% 29.89 in 10.0 mi South 9.2 mph - N/A   Clear
6:52 PM 78.1 °F 50.0 °F 37% 29.81 in 10.0 mi SSW 9.2 mph - N/A   Clear
7:52 PM 75.9 °F 50.0 °F 40% 29.81 in 10.0 mi South 10.4 mph - N/A   Clear
8:52 PM 69.1 °F 55.9 °F 63% 29.81 in 10.0 mi SSE 6.9 mph - N/A   Clear
9:52 PM 68.0 °F 54.0 °F 61% 29.82 in 10.0 mi SSE 9.2 mph - N/A   Clear
10:52 PM 64.0 °F 55.0 °F 73% 29.83 in 10.0 mi SE 10.4 mph - N/A   Clear
11:52 PM 64.0 °F 54.0 °F 70% 29.82 in 10.0 mi SSE 10.4 mph - N/A   Clear